Tracking 23752 objects as of 23-Oct-2021
HD Live streaming from Space Station
objects crossing your sky now

FREGAT DEB

Track FREGAT DEB now!
10-day predictions


NORAD ID: 46616
Int'l Code: 2011-037MG
Perigee: 618.6 km
Apogee: 4,501.6 km
Inclination: 50.7 °
Period: 140.0 minutes
Semi major axis: 8931 km
RCS: Unknown
Launch date: July 18, 2011
Source: Commonwealth of Independent States (former USSR) (CIS)
Launch site: TYURATAM MISSILE AND SPACE COMPLEX (TTMTR)

Note: This is SATELLITE DEBRIS
aabbcc
Your satellite tracking list
Your tracking list is empty




NASA's NSSDC Master Catalog

Two Line Element Set (TLE):
1 46616U 11037MG  21296.29779692 -.00006177  00000-0 -68744-2 0  9990
2 46616  50.7347  95.5661 2173874  78.5774 304.9665 10.28594632 39806
Source of the keplerian elements: AFSPC